Location: Baggett Branch
(32.6074°N, 97.0167°W)
Time: 22:47:03
(UTC+00:00)

Cosmos 2100 Rocket - Pass Details

Date: 10 February 2026
Orbit: 954 x 1001 km, 82.9° (Epoch: 11 March)

Event Time Altitude Azimuth Distance (km) Brightness Sun altitude
Rises 12:46:05 0° 182° (S) 3,704 7.2 -6.8°
Reaches altitude 10° 12:48:35 10° 181° (S) 2,759 6.5 -6.3°
Maximum altitude 12:54:56 83° 95° (E) 1,011 4.2 -5.0°
Drops below altitude 10° 13:01:19 10° 8° (N) 2,769 6.3 -3.7°
Sets 13:03:51 0° 7° (N) 3,717 7.0 -3.2°
